Location: Newark
(48.4472°N, 1.4892°E)
Time: 15:22:41
(UTC+00:00)

deb Explorer IX - Pass Details

Date: 23 November 2019
Orbit: 545 x 1105 km, 38.8° (Epoch: 08 December)

Event Time Altitude Azimuth Distance (km) Brightness Sun altitude
Exits shadow 04:25:27 11° 181° (S) 2,151 ? -27.3°
Drops below altitude 10° 04:25:51 10° 177° (S) 2,217 ? -27.2°
Sets 04:29:05 0° 154° (SSE) 3,018 ? -26.7°
